Temperature
24 21 20 21 22 22 22 21 21 21 21 19 17 16 16 16 16 15 15 15 15 15 16 17 17 17 18 18 18 19 19 19 19 20 20 20 20 20 20 20 19 19 19 19
20 21 22 22 22 21 21 20 19 20 20 19 16 16 16 15 15 15 14 14 14 14 15 16 16 17 17 17 17 18 18 19 19 19 19 19 20 20 19 19 19 19 18 18
20 21 22 22 20 20 20 20 20 20 19 19 17 15 14 14 14 14 14 13 13 13 13 14 15 16 16 16 16 17 17 18 18 19 19 19 19 19 19 19 19 18 18 18
20 20 21 20 19 19 19 20 20 20 18 16 17 14 13 13 13 13 13 13 13 13 13 13 14 15 15 15 15 16 16 17 17 18 18 18 19 19 19 19 18 18 18 18
19 19 19 19 19 19 19 19 19 19 17 16 15 13 12 12 12 12 12 12 12 12 12 13 13 13 14 14 15 15 15 16 16 17 17 17 18 18 18 18 18 18 18 17
19 20 20 19 19 19 17 17 17 15 14 14 13 13 12 11 11 12 12 12 12 12 12 12 13 13 14 14 14 14 15 15 16 16 16 17 17 17 17 17 17 17 17 17
18 18 19 19 17 17 15 14 14 14 13 13 14 13 12 12 12 12 12 12 12 12 12 12 12 13 13 13 14 14 14 15 15 15 15 16 16 16 16 16 16 16 16 16
17 16 18 18 17 17 16 14 13 14 13 13 13 12 11 12 12 12 12 12 12 12 12 12 12 12 13 13 13 13 14 14 14 14 15 15 15 15 15 15 15 15 15 15
16 17 18 18 17 16 15 14 14 13 13 12 12 12 12 13 12 12 12 12 12 12 12 12 12 12 12 12 13 13 13 13 14 14 14 14 14 14 15 15 15 15 15 15
17 16 17 18 17 16 15 14 12 12 12 12 12 12 11 11 11 11 12 12 12 12 12 12 12 12 12 12 12 13 13 13 13 13 14 14 14 14 14 14 14 14 14 14
17 15 15 15 15 15 14 14 12 11 11 11 11 11 12 11 11 11 11 12 12 12 12 12 12 12 12 12 12 12 13 13 13 13 13 13 13 13 14 14 14 14 14 14
15 13 14 15 16 16 15 14 12 11 11 11 11 11 13 12 12 12 12 13 13 13 13 12 12 12 12 12 12 12 12 12 13 13 13 13 13 13 14 14 14 14 14 14
15 13 13 14 14 15 15 15 14 11 10 10 11 12 13 12 12 13 13 13 13 13 13 13 13 13 12 12 12 12 12 12 12 13 13 13 13 13 14 14 14 14 14 14
16 13 13 15 14 14 15 15 14 12 10 11 12 12 12 12 12 13 14 14 14 14 14 13 13 13 13 13 12 12 12 12 12 13 13 13 13 13 13 13 14 14 14 14
14 14 15 15 16 16 15 15 14 13 12 12 12 13 13 13 13 14 14 14 14 14 14 14 14 13 13 13 12 12 12 12 12 12 13 12 12 13 13 13 13 13 14 14
14 15 15 16 16 16 15 15 15 14 14 13 13 13 14 14 14 14 14 14 14 14 14 14 14 13 13 13 13 12 12 12 12 12 12 12 12 12 12 12 12 13 13 13
14 14 14 14 15 16 14 15 15 15 15 14 13 14 14 14 15 15 14 14 14 14 14 14 14 14 13 13 13 12 12 12 12 12 12 12 12 12 12 12 12 12 12 12
14 13 12 13 15 15 15 16 16 15 15 15 15 15 15 15 15 15 15 14 14 14 14 14 14 14 13 13 13 12 12 12 12 12 12 12 12 12 11 12 12 11 11 12
14 14 13 12 14 15 15 16 16 15 15 15 15 15 16 15 15 15 15 15 14 14 14 14 14 14 14 13 13 13 12 12 12 12 12 11 11 11 11 11 11 11 11 11
14 12 13 13 15 15 15 16 17 16 15 16 16 15 15 15 12 13 15 15 14 14 14 14 14 14 14 13 13 13 13 12 12 12 12 11 11 11 11 11 10 10 11 11
15 14 14 14 14 14 16 16 16 14 14 16 16 16 16 15 14 15 15 15 15 14 14 14 14 14 14 14 14 13 13 12 12 12 12 11 11 11 11 11 10 10 10 10
14 14 13 12 14 15 16 15 14 14 16 16 16 16 16 16 15 15 15 15 15 15 15 15 15 14 14 14 14 13 13 13 12 12 12 11 11 11 11 11 11 10 10 11
14 14 13 13 14 16 17 17 18 17 17 17 16 16 16 16 15 15 15 15 15 15 15 15 15 15 14 14 14 14 13 13 13 12 12 11 11 11 11 11 11 10 10 11
15 15 13 14 14 16 17 18 18 17 17 17 16 16 16 15 15 15 15 15 15 15 15 15 15 15 15 14 14 14 14 13 13 12 12 11 11 11 11 11 11 10 10 10
16 16 14 14 15 16 17 17 17 17 17 16 16 16 15 15 15 15 15 15 15 15 15 15 15 15 15 14 14 14 14 13 13 12 12 11 11 11 11 10 10 10 10 10
16 15 14 14 16 16 17 17 17 17 16 16 16 15 15 15 15 15 15 15 15 15 15 15 15 15 15 14 14 14 14 13 13 12 12 11 11 11 11 10 10 10 10 10
Wind_Speed
5 8 6 5 5 4 4 5 4 3 4 8 12 13 13 14 17 17 16 15 15 14 13 14 15 15 13 12 11 11 11 10 7 3 2 4 5 6 6 6 6 8 8 9
8 7 5 7 8 8 8 6 5 3 3 5 12 13 11 15 16 14 15 15 15 16 16 17 15 15 15 13 12 11 10 10 8 5 3 3 3 2 3 3 5 7 7 8
8 3 7 11 11 8 6 4 2 4 4 5 7 7 11 10 13 15 15 14 14 15 16 16 16 14 13 13 12 11 10 10 9 8 4 2 1 2 2 3 4 5 7 7
8 6 9 10 8 7 4 5 4 3 2 1 2 2 7 9 13 18 18 17 17 16 16 15 15 15 13 12 11 10 10 10 9 7 4 2 3 4 5 5 4 4 4 5
5 6 9 8 6 6 5 8 5 2 3 3 6 5 5 8 12 17 17 17 16 16 16 15 14 13 12 11 11 10 10 10 9 8 5 2 2 3 3 4 6 5 4 4
6 4 5 4 4 6 6 6 7 7 6 5 6 4 5 7 11 15 15 16 15 15 15 14 13 12 11 11 11 10 10 10 10 9 7 4 1 2 5 5 6 5 3 3
6 7 6 6 7 9 10 7 6 8 7 3 3 6 3 7 10 11 13 14 14 13 13 13 13 13 12 13 12 10 10 10 10 10 8 7 3 2 3 3 4 4 3 2
4 6 7 7 5 4 6 6 5 2 0 1 4 4 2 6 9 10 10 11 13 14 13 12 12 11 11 11 12 11 10 9 9 9 8 8 6 3 3 3 3 3 2 2
5 3 3 7 7 5 5 4 2 5 3 3 3 2 3 8 11 12 13 13 13 13 14 13 12 10 10 10 10 10 10 9 9 9 8 8 7 6 5 4 3 3 2 2
6 6 3 4 8 9 5 2 6 5 3 2 2 3 5 10 12 13 13 13 12 12 13 13 12 11 10 10 9 9 9 9 8 9 8 8 8 7 6 5 4 3 1 1
5 6 4 6 6 7 7 6 6 5 4 3 1 2 4 7 9 10 11 11 10 10 11 10 10 10 10 10 9 9 9 9 9 9 8 8 8 8 7 6 5 4 2 2
4 6 4 2 2 2 4 3 4 4 3 3 3 3 6 7 8 8 9 9 9 9 9 8 8 9 9 9 9 10 9 9 9 8 8 8 8 8 8 7 6 6 5 4
5 6 4 4 6 6 5 5 4 6 5 3 2 3 4 5 7 7 7 8 7 8 8 7 7 7 8 8 8 8 9 9 9 8 8 9 9 9 9 9 8 7 6 5
5 5 5 5 4 1 2 4 4 5 4 3 2 3 5 6 6 7 6 6 6 7 7 8 7 7 7 6 6 7 8 8 8 8 9 10 10 9 9 9 9 9 7 7
6 5 4 4 4 4 3 4 5 5 5 5 4 4 5 5 4 5 5 5 5 7 8 8 7 7 7 7 7 7 7 8 8 9 10 10 9 9 9 10 9 9 9 8
5 5 3 2 3 3 2 3 4 3 4 4 4 3 5 3 1 3 4 5 5 6 7 8 8 8 7 6 5 6 7 7 7 8 9 8 9 9 10 9 9 9 9 8
3 6 4 2 3 1 1 4 4 3 4 6 4 5 3 1 1 1 2 3 4 6 6 7 7 6 4 4 4 5 5 5 7 7 8 8 8 8 8 8 9 8 7 7
5 5 4 3 3 3 6 4 5 5 4 6 5 4 4 4 3 1 1 1 3 5 6 7 6 5 3 3 3 4 5 6 6 6 7 7 7 7 7 8 8 7 6 6
4 6 4 4 2 2 4 3 5 5 3 5 6 4 4 5 3 4 3 1 1 3 4 4 4 2 2 2 2 4 5 5 6 6 6 6 6 7 8 8 7 6 6 7
5 6 5 3 3 5 7 6 5 5 2 5 7 6 6 5 2 4 5 2 2 4 4 4 4 3 3 2 1 3 3 4 4 4 4 4 5 6 7 7 7 6 6 6
1 2 2 3 4 6 5 6 7 5 7 6 8 8 7 6 6 5 3 1 1 3 4 4 5 3 3 2 1 2 2 2 1 3 4 5 5 5 6 7 6 6 7 7
7 5 4 4 3 7 6 9 8 9 4 8 8 8 7 5 3 1 1 0 2 3 5 5 4 5 4 2 1 0 2 1 2 4 5 5 6 6 6 7 7 7 7 7
7 8 6 7 7 6 9 9 8 7 8 7 8 7 7 5 3 3 1 0 2 3 4 4 4 5 5 3 1 2 3 0 4 5 4 4 5 6 6 7 7 6 7 6
3 4 4 3 5 5 6 5 7 8 8 8 8 8 7 6 4 3 1 1 2 3 4 4 4 5 5 5 3 3 2 3 6 6 4 3 4 5 6 6 5 6 6 6
7 6 4 3 4 3 5 6 9 8 9 9 8 7 8 7 5 4 2 1 2 2 3 3 4 5 6 5 3 2 1 4 5 5 4 3 3 3 4 4 4 4 4 4
5 8 8 8 9 9 10 10 10 11 10 10 9 8 7 7 6 4 2 1 1 1 2 3 5 5 5 4 2 2 1 4 5 4 4 3 3 2 2 3 3 5 4 7
Wind_Direction
46 59 58 53 68 98 83 72 49 48 56 72 83 68 47 36 40 33 25 20 17 12 8 11 10 9 9 10 8 4 358 349 344 329 265 214 201 192 189 187 180 181 176 173
52 41 55 67 48 52 56 57 20 350 45 88 91 70 50 40 37 30 22 13 6 3 4 4 5 4 1 359 358 358 352 343 335 319 288 239 204 185 183 177 165 169 169 169
94 28 47 52 36 29 36 56 356 318 15 79 110 59 26 19 23 23 18 11 7 4 358 355 355 354 354 354 352 350 343 338 331 323 315 319 123 130 149 167 176 179 166 166
65 17 47 47 26 14 330 315 305 295 39 309 76 102 13 354 7 11 7 4 1 356 353 351 349 349 349 346 344 344 341 338 335 333 334 303 221 205 195 179 171 167 159 153
71 45 48 36 1 2 299 301 304 283 141 59 23 94 3 353 1 357 355 354 353 349 347 346 346 345 344 345 344 343 343 345 342 341 333 310 248 214 174 155 156 159 154 151
61 56 51 0 344 355 339 4 31 45 72 55 352 76 18 0 343 341 344 345 346 345 342 341 344 346 347 347 347 347 347 348 349 351 351 344 287 168 158 165 167 165 152 151
37 16 9 7 8 0 25 48 32 23 33 38 8 72 26 339 337 335 334 338 343 346 342 344 348 350 352 351 350 349 350 352 355 3 6 4 16 95 133 146 158 150 148 154
89 14 8 15 24 357 16 80 110 111 67 11 18 53 313 333 335 334 335 339 346 349 347 348 349 350 351 351 351 353 355 355 1 9 11 17 27 52 72 89 111 127 144 160
121 101 58 41 26 50 26 19 134 134 81 77 37 18 327 340 345 346 348 349 350 351 351 351 352 354 351 351 353 357 3 5 6 9 13 22 25 37 55 67 79 95 113 143
122 112 32 14 20 20 59 58 58 71 87 77 35 7 330 327 332 336 340 343 343 347 350 355 355 355 356 357 359 3 9 10 8 12 20 30 28 34 42 51 48 47 56 82
84 108 15 27 28 358 10 29 64 78 98 119 74 315 263 280 301 315 324 329 333 338 338 346 350 353 359 4 6 10 9 14 17 17 20 27 28 30 37 40 32 28 32 59
56 101 69 24 318 11 52 44 98 111 77 94 123 280 270 267 286 299 310 319 326 328 330 337 341 348 357 3 9 15 16 20 17 15 21 25 25 28 31 27 24 25 32 35
80 99 89 354 341 1 26 12 80 110 100 94 108 289 300 285 296 300 304 313 320 323 331 339 341 342 349 356 5 13 15 19 19 19 21 26 25 25 25 22 22 24 30 33
99 80 134 158 205 222 49 35 68 97 105 119 167 249 304 301 306 317 320 321 327 336 342 346 348 349 351 358 8 14 16 17 23 26 28 31 27 24 24 25 27 28 35 40
89 91 113 144 156 128 110 94 82 94 141 147 183 204 258 275 292 311 324 339 353 356 357 353 355 356 0 11 16 20 19 18 23 31 33 30 26 28 29 30 31 34 39 43
89 121 121 135 172 129 100 126 119 113 125 137 157 228 242 244 304 359 360 4 1 353 354 353 357 6 9 16 20 25 24 20 28 36 33 28 30 33 31 27 29 34 35 36
94 124 124 190 202 101 278 216 182 165 167 163 186 220 215 153 106 51 17 17 359 350 347 348 350 357 7 17 33 39 27 26 34 36 30 26 29 31 26 27 31 30 28 35
119 117 124 127 125 242 254 230 167 163 192 187 186 196 186 170 170 189 181 62 356 346 345 344 344 352 2 22 37 45 38 36 38 35 29 26 28 27 21 24 25 22 22 30
116 127 112 120 168 268 290 211 169 165 216 194 171 172 156 136 61 348 307 277 306 328 330 328 336 345 13 31 50 59 40 34 39 35 30 28 31 29 25 23 16 15 26 34
67 88 107 124 160 235 241 204 154 116 238 217 159 152 147 125 90 279 284 301 334 342 335 338 349 7 10 3 72 68 40 35 36 35 35 35 38 37 30 22 19 21 32 38
31 55 123 170 218 257 243 149 118 159 228 191 157 152 146 160 196 234 269 314 334 335 334 344 357 354 310 296 105 67 16 2 22 59 51 43 38 42 36 31 28 29 36 41
174 172 197 166 203 256 190 143 176 211 174 152 150 152 150 169 189 166 117 93 334 334 332 342 350 337 314 293 146 126 298 290 105 88 69 52 42 43 43 41 34 30 33 39
184 186 185 187 213 236 179 187 197 160 151 154 153 156 148 147 141 126 135 247 312 323 326 332 341 338 328 311 249 244 281 149 121 110 95 72 58 47 42 46 40 33 30 37
256 154 138 210 258 208 190 175 159 158 155 157 154 151 145 147 145 136 156 277 315 321 324 336 349 348 333 314 292 264 287 119 125 127 127 105 83 62 48 44 42 45 36 35
222 165 160 223 239 185 224 191 170 158 146 147 149 151 154 152 154 157 178 266 302 316 320 336 344 332 322 316 310 309 118 119 126 135 142 129 113 99 74 58 43 42 30 26
200 174 176 214 203 181 209 200 170 155 160 161 158 161 165 164 168 161 184 247 268 295 322 339 340 333 324 328 318 333 94 131 138 142 152 154 144 132 116 100 54 27 32 33
Height
1526 1533 1539 1537 1535 1536 1538 1542 1545 1542 1538 1543 1551 1556 1557 1554 1551 1551 1550 1548 1545 1542 1540 1536 1533 1530 1528 1525 1523 1521 1520 1519 1518 1518 1518 1519 1519 1520 1522 1523 1525 1528 1530 1532
1535 1541 1536 1534 1533 1535 1539 1545 1548 1543 1540 1546 1555 1560 1560 1559 1558 1557 1555 1551 1548 1543 1538 1535 1532 1529 1526 1524 1522 1519 1517 1516 1515 1514 1514 1514 1515 1516 1517 1519 1521 1522 1524 1527
1541 1543 1536 1535 1539 1542 1543 1547 1547 1547 1544 1546 1553 1564 1565 1563 1561 1559 1557 1554 1550 1546 1541 1536 1532 1528 1525 1522 1520 1518 1515 1513 1512 1511 1510 1510 1510 1512 1513 1515 1516 1518 1520 1522
1543 1542 1539 1542 1545 1545 1549 1542 1541 1542 1550 1559 1556 1573 1573 1567 1564 1560 1558 1554 1550 1547 1542 1537 1532 1528 1525 1522 1519 1516 1513 1511 1509 1507 1506 1506 1505 1506 1508 1510 1512 1513 1515 1518
1548 1546 1546 1549 1549 1545 1545 1539 1540 1541 1550 1561 1564 1574 1580 1571 1569 1565 1562 1558 1553 1549 1544 1538 1533 1529 1524 1521 1518 1514 1512 1509 1506 1504 1503 1502 1502 1502 1504 1506 1507 1509 1512 1514
1548 1547 1548 1550 1547 1545 1543 1542 1543 1549 1558 1576 1577 1579 1585 1580 1577 1570 1565 1560 1555 1550 1545 1539 1534 1528 1524 1520 1517 1514 1511 1508 1505 1502 1500 1499 1498 1499 1500 1502 1504 1506 1508 1510
1557 1554 1552 1550 1551 1549 1550 1559 1571 1575 1583 1586 1578 1582 1589 1582 1577 1573 1568 1562 1557 1551 1546 1539 1534 1528 1524 1521 1517 1514 1510 1507 1504 1502 1499 1497 1497 1497 1498 1499 1501 1502 1504 1506
1566 1571 1559 1555 1556 1557 1557 1564 1581 1587 1589 1588 1583 1587 1589 1581 1577 1573 1568 1563 1558 1552 1546 1540 1535 1530 1526 1522 1518 1515 1511 1508 1505 1502 1500 1498 1497 1497 1497 1498 1500 1501 1503 1505
1568 1571 1561 1558 1557 1557 1562 1567 1567 1579 1582 1590 1590 1588 1584 1580 1576 1572 1568 1563 1558 1553 1547 1542 1537 1532 1528 1524 1520 1516 1513 1510 1507 1504 1502 1500 1498 1498 1498 1498 1500 1501 1502 1503
1559 1570 1565 1562 1560 1560 1563 1566 1575 1582 1590 1596 1594 1593 1594 1584 1578 1573 1569 1564 1559 1554 1549 1544 1539 1534 1530 1526 1522 1518 1515 1512 1509 1507 1504 1502 1501 1500 1500 1500 1501 1501 1502 1503
1556 1570 1573 1569 1572 1572 1569 1571 1577 1585 1589 1597 1600 1600 1587 1584 1579 1575 1570 1565 1561 1556 1551 1547 1542 1538 1533 1529 1525 1521 1517 1514 1511 1509 1507 1505 1504 1503 1503 1502 1503 1503 1503 1504
1560 1572 1581 1575 1570 1568 1569 1571 1577 1588 1593 1595 1600 1601 1582 1580 1577 1574 1570 1566 1562 1558 1554 1550 1545 1541 1536 1532 1528 1524 1521 1517 1515 1513 1511 1509 1507 1506 1506 1505 1505 1505 1505 1505
1561 1574 1588 1587 1583 1575 1573 1572 1574 1583 1592 1597 1600 1598 1580 1579 1576 1573 1570 1567 1564 1560 1556 1552 1548 1544 1540 1536 1532 1528 1524 1521 1519 1516 1514 1512 1510 1509 1508 1507 1507 1507 1507 1507
1560 1574 1582 1586 1586 1579 1578 1576 1575 1582 1593 1595 1594 1591 1583 1579 1576 1573 1570 1568 1565 1562 1558 1554 1550 1547 1543 1539 1536 1532 1528 1525 1522 1520 1517 1515 1513 1511 1510 1510 1509 1508 1508 1508
1562 1576 1575 1576 1574 1575 1576 1577 1577 1580 1585 1591 1589 1586 1582 1578 1576 1573 1571 1568 1566 1563 1559 1556 1553 1549 1546 1542 1539 1535 1532 1529 1526 1523 1520 1518 1516 1515 1513 1512 1511 1510 1510 1510
1564 1574 1576 1578 1575 1575 1578 1577 1577 1579 1580 1583 1584 1584 1578 1576 1575 1573 1571 1569 1567 1564 1561 1558 1555 1552 1549 1546 1542 1539 1536 1533 1530 1526 1523 1521 1519 1518 1516 1514 1513 1512 1512 1511
1567 1574 1581 1586 1578 1579 1585 1578 1577 1577 1577 1579 1583 1581 1576 1576 1575 1574 1572 1570 1567 1565 1563 1560 1557 1554 1551 1548 1545 1542 1539 1536 1533 1529 1527 1524 1522 1520 1518 1517 1516 1514 1513 1512
1567 1574 1582 1585 1585 1590 1581 1570 1571 1574 1574 1574 1574 1574 1574 1575 1575 1574 1572 1570 1568 1566 1564 1561 1559 1556 1554 1551 1548 1545 1542 1539 1536 1533 1530 1527 1525 1523 1521 1519 1518 1516 1515 1514
1563 1571 1581 1588 1588 1583 1577 1570 1570 1574 1575 1571 1572 1573 1574 1575 1575 1574 1573 1571 1569 1567 1565 1563 1560 1558 1555 1553 1550 1548 1545 1542 1539 1536 1533 1531 1528 1526 1524 1522 1520 1519 1517 1516
1565 1569 1579 1584 1584 1585 1573 1565 1567 1572 1577 1570 1570 1571 1573 1574 1578 1576 1573 1571 1569 1567 1565 1563 1561 1559 1557 1554 1552 1550 1547 1544 1542 1539 1537 1534 1531 1529 1526 1524 1523 1521 1520 1518
1571 1573 1578 1581 1581 1575 1563 1563 1567 1581 1575 1567 1568 1570 1571 1572 1574 1574 1572 1571 1570 1568 1566 1564 1562 1560 1558 1556 1554 1552 1549 1547 1545 1542 1540 1537 1534 1531 1529 1527 1525 1524 1522 1521
1570 1575 1577 1581 1581 1575 1559 1562 1567 1565 1562 1564 1567 1569 1570 1571 1572 1572 1572 1571 1570 1568 1566 1565 1563 1561 1559 1557 1555 1553 1551 1549 1547 1545 1542 1540 1537 1534 1532 1530 1528 1527 1525 1523
1561 1561 1563 1566 1565 1554 1553 1555 1557 1558 1560 1563 1565 1568 1569 1571 1572 1572 1572 1571 1570 1568 1567 1565 1563 1561 1559 1558 1556 1554 1552 1550 1549 1547 1545 1542 1540 1538 1535 1533 1531 1529 1528 1526
1553 1552 1555 1556 1553 1550 1552 1554 1555 1557 1559 1562 1564 1567 1569 1570 1571 1571 1571 1570 1569 1568 1567 1565 1563 1562 1560 1558 1557 1555 1553 1552 1550 1548 1547 1545 1543 1541 1539 1537 1535 1533 1531 1529
1548 1549 1552 1553 1550 1551 1551 1552 1554 1556 1559 1561 1564 1566 1567 1569 1570 1570 1570 1570 1569 1568 1566 1565 1563 1562 1560 1559 1557 1556 1554 1553 1551 1550 1548 1547 1545 1543 1542 1540 1538 1536 1534 1533
1542 1544 1548 1548 1543 1545 1546 1549 1552 1554 1557 1559 1562 1564 1566 1567 1568 1569 1569 1569 1568 1567 1566 1564 1563 1561 1560 1559 1557 1556 1555 1554 1552 1551 1549 1548 1547 1545 1544 1543 1541 1540 1538 1536